Location: PSU-Greenbush Astrophysical Observatory
(37.5140°N, 94.9880°W)
Time: 01:22:35
(UTC-06:00)

deb Explorer IX - Pass Details

Date: 25 January 2020
Orbit: 549 x 1099 km, 38.8° (Epoch: 20 February)

Event Time Altitude Azimuth Distance (km) Brightness Sun altitude
Rises 21:52:42 0° 244° (WSW) 3,684 ? -50.6°
Enters shadow 21:54:04 - 243° (WSW) 3,207 ? -50.9°
Reaches altitude 10° 21:55:16 10° 242° (WSW) 2,798 - -51.1°
Maximum altitude 22:02:10 72° 160° (SSE) 1,131 - -52.4°
Drops below altitude 10° 22:09:27 10° 77° (ENE) 2,948 - -53.7°
Sets 22:12:13 0° 76° (ENE) 3,892 - -54.2°
